Погода в Григорове

Россия / Архангельская область     61°22′24″N   46°32′03″E
темп.,
°C
ветер,
м/с
пор.,
м/с
влажн.,
%
обл.,
%
осадки,
мм/ч
давл.,
гПа
погр.,
м
5 августа, чт
чт500:00+11з3108393 0.0 1013209
03:00+10зсз24841 0.0 101482
06:00+12сз26720 0.0 1015207
09:00+17сз34505 0.0 10161032
12:00+20сз35395 0.0 10161949
15:00+20сз46375 0.0 10172237
18:00+18ссв47525 0.0 1018687
21:00+13всв116463 0.0 101814
6 августа, пт
пт600:00+10юз00776 0.0 101910
03:00+9зюз007815 0.0 102010
06:00+12ссв007181 0.0 102077
09:00+17св1154100 0.0 1020512
12:00+19ссв114799 0.0 10201097
15:00+18св125769 0.0 1020297
18:00+18в126089 0.0 102087
21:00+13св226851 0.0 102036
7 августа, сб
сб700:00+10всв248297 0.0 102184
03:00+9св118654 0.0 102220
06:00+11всв23775 0.0 1022172
09:00+16всв235378 0.0 1022987
12:00+19св234290 0.0 10211547
15:00+20св233890 0.0 10211699
18:00+19ссв235580 0.0 102064
21:00+12всв2266100 0.0 102112
8 августа, вс
вс800:00+11всв2272100 0.0 102132
03:00+9всв228089 0.0 102231
06:00+11в2675100 0.0 1023199
09:00+17в355482 0.0 1022722
12:00+16юв2364100 0.0 1022372
15:00+14в2376100 0.2 102373
18:00+13св1175100 0.1 102217
21:00+13всв2577100 0.1 1023116
9 августа, пн
пн900:00+13всв2774100 0.0 1022186
03:00+12в2876100 0.0 1022184
06:00+13юв288696 0.3 1021327
09:00+14вюв4881100 0.6 1021403
12:00+14в3789100 0.6 1020418
15:00+13в3894100 0.7 1020417
18:00+13всв379785 0.1 1019317
21:00+13всв3797100 0.2 1019263